Home   Weather   45°30'N, 11°29'E   Past weeks
Flag for Italy

Past Weather in 45°30'N, 11°29'E, Italy — Yesterday and Last 2 Weeks

Now
59 °F

Passing clouds.


Feels Like: 58 °F
Forecast: 69 / 55 °F
Wind: 6 mph from South

Location: Treviso / S. Angelo

Current Time: May 20, 2019 at 11:07:04 pm

Latest Report: May 20, 2019 at 10:20 pm


Visibility: N/A

Pressure: 29.71 "Hg

Humidity: 88%

Dew Point: 55 °F

Location of 45°30'N, 11°29'ELocation

Past Weather in 45°30'N, 11°29'E — Graph

°F

45°30'N, 11°29'E Temperature Yesterday

Maximum temperature yesterday: 63 °F (at 3:50 pm)
Minimum temperature yesterday: 55 °F (at 12:50 am)
Average temperature yesterday: 58 °F

High & Low Weather Summary for the Past Weeks

 TemperatureHumidityPressure
High68 °F (May 10, 1:50 pm)100% (May 8, 8:50 pm)30.18 "Hg (May 8, 8:50 pm)
Low46 °F (May 5, 9:20 pm)39% (May 6, 11:20 am)29.62 "Hg (May 20, 3:50 am)
Average57 °F79%29.88 "Hg
* Reported May 5 9:20 pm — May 20 9:50 pm, 45°30'N, 11°29'E. Weather by CustomWeather, © 2019

Note: Actual official high and low records may vary slightly from our data, if they occured in-between our weather recording intervals... More about our weather records

Advertising

45°30'N, 11°29'E Weather History for the Previous 24 Hours

Scroll right to see more
 ConditionsComfort  
Time TempWeatherWind HumidityBarometerVisibility
9:50 pm
Mon, May 20
59 °FPassing clouds.5 mph82%29.71 "HgN/A
9:20 pm59 °FPassing clouds.6 mph82%29.71 "HgN/A
8:50 pm59 °FPassing clouds.6 mph82%29.71 "HgN/A
8:20 pm61 °FPartly sunny.8 mph77%29.71 "HgN/A
7:50 pm61 °FPartly sunny.8 mph83%29.71 "HgN/A
7:20 pm63 °FPartly sunny.8 mph77%29.68 "HgN/A
6:50 pm63 °FPartly sunny.6 mph77%29.68 "HgN/A
6:20 pm63 °FPartly sunny.8 mph73%29.68 "HgN/A
5:50 pm63 °FPartly sunny.7 mph77%29.68 "HgN/A
5:20 pm64 °FBroken clouds.7 mph73%29.68 "HgN/A
4:50 pm64 °FBroken clouds.9 mph73%29.68 "HgN/A
4:20 pm64 °FBroken clouds.7 mph73%29.68 "HgN/A
3:50 pm63 °FScattered clouds.10 mph77%29.68 "HgN/A
3:20 pm63 °FPartly sunny.10 mph77%29.68 "HgN/A
2:50 pm63 °FPartly sunny.10 mph77%29.68 "HgN/A
2:20 pm64 °FPartly sunny.15 mph73%29.68 "HgN/A
1:50 pm64 °FPartly sunny.14 mph73%29.68 "HgN/A
1:20 pm63 °FBroken clouds.10 mph77%29.68 "HgN/A
12:50 pm63 °FBroken clouds.13 mph77%29.65 "HgN/A
12:20 pm63 °FBroken clouds.10 mph83%29.65 "HgN/A
11:50 am61 °FPartly sunny.12 mph83%29.65 "HgN/A
11:20 am61 °FBroken clouds.10 mph83%29.65 "HgN/A
10:50 am59 °FPartly sunny.10 mph88%29.65 "HgN/A
10:20 am59 °FBroken clouds.9 mph94%29.65 "HgN/A
9:50 am59 °FBroken clouds.7 mph94%29.65 "Hg4 mi
9:20 am59 °FBroken clouds.3 mph88%29.65 "HgN/A
8:50 am59 °FBroken clouds.3 mph94%29.65 "Hg4 mi
7:50 am57 °FPartly sunny.2 mph100%29.62 "Hg4 mi
7:20 am57 °FPartly sunny.2 mph100%29.62 "Hg4 mi
6:50 am57 °FFog.2 mph100%29.62 "Hg3 mi
6:20 am57 °FFog.2 mph100%29.62 "Hg3 mi
5:50 am57 °FFog.2 mph94%29.62 "Hg2 mi
5:20 am57 °FFog.2 mph94%29.62 "Hg3 mi
4:50 am57 °FFog.2 mph100%29.62 "Hg1 mi
4:20 am57 °FFog.2 mph100%29.62 "Hg2 mi
3:50 am57 °FFog.1 mph100%29.62 "Hg1 mi
3:20 am57 °FFog.1 mph100%29.65 "Hg2 mi
2:50 am57 °FFog.1 mph100%29.65 "Hg2 mi
2:20 am57 °FFog.1 mph100%29.65 "Hg3 mi
1:50 am57 °FOvercast.1 mph100%29.65 "Hg5 mi
1:20 am57 °FOvercast.1 mph100%29.65 "Hg4 mi
12:50 am57 °FOvercast.1 mph100%29.65 "Hg6 mi
12:20 am57 °FMostly cloudy.2 mph100%29.65 "Hg6 mi
11:50 pm
Sun, May 19
57 °FMostly cloudy.2 mph100%29.65 "Hg6 mi
11:20 pm57 °FMostly cloudy.3 mph100%29.65 "HgN/A
Weather by CustomWeather, © 2019

See weather overview